Location: Newark
(49.2191°N, 12.6671°E)
Time: 05:24:14
(UTC+00:00)

Transit 4A - Pass Details

Date: 28 January 2020
Orbit: 872 x 973 km, 66.8° (Epoch: 19 February)

Event Time Altitude Azimuth Distance (km) Brightness Sun altitude
Rises 04:46:12 0° 196° (SSW) 3,542 10.8 -19.6°
Reaches altitude 10° 04:48:47 10° 192° (SSW) 2,589 10.2 -19.2°
Maximum altitude 04:54:33 52° 118° (ESE) 1,105 8.7 -18.2°
Drops below altitude 10° 05:00:15 10° 43° (NE) 2,549 10.7 -17.3°
Sets 05:02:46 0° 39° (NE) 3,483 11.3 -16.9°
